Location: Newark
(47.5833°N, 8.1500°E)
Time: 17:37:56
(UTC+00:00)

Transit 2A - Pass Details

Date: 31 October 2020
Orbit: 595 x 964 km, 66.7° (Epoch: 29 November)

Event Time Altitude Azimuth Distance (km) Brightness Sun altitude
Rises 23:51:33 0° 206° (SSW) 3,619 - -55.6°
Reaches altitude 10° 23:54:06 10° 204° (SSW) 2,690 - -55.4°
Maximum altitude 00:00:26 75° 121° (ESE) 994 - -55.1°
Drops below altitude 10° 00:06:40 10° 37° (NE) 2,642 - -54.7°
Exits shadow 00:08:14 - 36° (NE) 3,215 9.7 -54.6°
Sets 00:09:09 0° 36° (NE) 3,552 10.0 -54.5°
